Location: Austin
(30.3000°N, 97.7500°W)
Time: 12:18:51
(UTC-05:00)

BREEZE-M DEB (TANK) - Pass Details

Date: 26 May 2023
Orbit: 443 x 14859 km, 45.9° (Epoch: 29 May)

Event Time Altitude Azimuth Distance (km) Brightness Sun altitude
Rises 21:43:38 0° 318° (NW) 2,428 7.8 -15.4°
Reaches altitude 10° 21:45:25 10° 330° (NNW) 1,635 6.3 -15.7°
Maximum altitude 21:48:18 32° 39° (NE) 1,065 4.2 -16.2°
Enters shadow 21:51:13 19° 91° (E) 2,007 5.2 -16.7°
